Location: Kergadalen
(48.2670°N, 4.2360°W)
Time: 14:17:02
(UTC+00:00)

Daily predictions for brighter satellites

Satellite Brightness Start Highest point End
(mag) Time Altitude Azimuth Time Altitude Azimuth Time Altitude Azimuth
NOAA 11 4.2 16:48:19 10° SSE 16:53:44 84° ENE 16:59:12 10° NNW
Cosmos 1833 Rocket 2.9 16:48:40 10° S 16:54:08 55° ESE 16:59:38 10° NE
USA 229 DEB 4.1 16:48:07 10° NW 16:55:27 86° SW 17:03:17 10° SE
USA 229 4.1 16:48:13 10° NW 16:55:33 86° SW 17:03:22 10° SE
Cosmos 841 Rocket 4.4 16:51:24 10° SSE 16:55:51 30° E 17:00:17 10° NE
SeaSat 1 3.5 16:51:40 10° NNE 16:56:20 43° NW 17:00:58 10° WSW
CZ-2C R/B 2.9 16:52:04 10° SSE 16:56:52 65° ENE 17:01:36 10° N
Okean O Rocket 3.3 16:56:54 10° E 16:58:59 13° ENE 17:01:05 10° NNE
USA 306 3.7 16:55:14 10° WNW 16:59:12 37° N 17:03:11 10° ENE
Cosmos 1937 Rocket 3.6 16:55:56 10° NNW 17:01:14 62° ENE 17:06:30 10° SE
H-2A R/B 2.9 16:58:09 10° ESE 17:02:18 26° ENE 17:06:24 10° N
ISS -3.7 16:59:30 10° WNW 17:02:54 88° N 17:06:18 10° ESE
Cosmos 1939 Rocket 3.3 16:59:26 10° SE 17:03:18 42° ENE 17:07:09 10° N
COSMOS 2406 3.5 16:57:47 10° S 17:03:19 51° ESE 17:08:51 10° NE
ATLAS 2AS CENTAUR R/B 4.2 16:57:20 10° WNW 17:03:40 27° NNW 17:09:45 10° NE
Cosmos 1606 3.7 17:00:55 10° SSW 17:04:34 48° WNW 17:08:17 10° N
Cosmos 990 Rocket 4.4 16:59:32 10° NNW 17:04:44 72° WSW 17:09:51 10° SSE
Meteor 1-31 Rocket 4.2 17:01:19 10° S 17:04:55 42° W 17:08:35 10° NNW
Cosmos 372 Rocket 4.3 17:00:57 10° NNW 17:05:59 45° ENE 17:11:01 10° SE
CZ-2C R/B 4.1 17:04:45 10° NE 17:07:51 16° E 17:10:55 10° SE
Cosmos 1500 3.8 17:06:40 10° N 17:10:06 33° ENE 17:13:30 10° SE
Cosmos 1500 Rocket 3.6 17:08:34 10° N 17:13:02 87° W 17:17:26 10° S
USA 234 3.3 17:08:18 10° ESE 17:14:48 71° NNE 17:21:18 10° NW
Cosmos 1782 3.4 17:12:48 10° SSE 17:16:29 37° E 17:20:11 10° NNE
Cosmos 2221 3.5 17:12:28 10° SSW 17:16:38 50° WNW 17:20:52 10° N
Sich 1 3.2 17:13:34 10° N 17:17:46 50° ENE 17:21:58 10° SSE
CZ-2D R/B 4.1 17:15:26 10° SE 17:18:45 29° ENE 17:22:05 10° N
USA 307 3.7 17:14:56 10° WNW 17:18:55 38° N 17:22:25 13° ENE
SL-08 R/B 3.4 17:14:54 10° NNE 17:19:38 79° WNW 17:24:14 10° SSW
CZ-4B R/B 3.9 17:16:43 10° ESE 17:21:20 30° ENE 17:25:54 10° N
NOSS 2-2 (E) 4.5 17:17:17 10° NW 17:22:31 88° SW 17:29:56 10° SE
NOSS 2-2 (D) 4.3 17:17:34 10° NW 17:22:38 80° NE 17:29:46 10° SE
ATLAS 5 CENTAUR R/B 3.5 17:14:15 10° NW 17:23:31 36° NNE 17:26:27 14° ENE
NOAA 6 4.0 17:19:07 10° SSE 17:24:13 68° ENE 17:29:19 10° N
Cosmos 1805 Rocket 3.4 17:20:48 10° N 17:25:09 76° E 17:29:29 10° SSE
Cosmos 1340 Rocket 4.1 17:22:17 10° NNW 17:26:13 46° W 17:30:07 10° S
PAYLOAD B 4.5 17:22:05 10° SE 17:27:24 47° ENE 17:32:45 10° N
SL-24 R/B - RUBIN 2 3.5 17:22:59 10° NW 17:27:34 85° NE 17:31:54 10° SE
ERBS 4.1 17:26:41 10° NW 17:29:01 18° N 17:30:53 12° NNE
deb Chang Zheng 4 4.5 17:27:45 10° ESE 17:31:21 27° ENE 17:34:58 10° N
Cosmos 540 Rocket 3.4 17:30:16 10° SSW 17:35:22 81° ESE 17:40:30 10° NNE
Cosmos 2360 Rocket 3.6 17:31:47 10° N 17:35:32 18° NE 17:37:21 15° ENE
Lacrosse 5 rocket 1.6 17:32:21 10° NW 17:36:06 45° NNE 17:39:13 15° E
ATLAS CENTAUR R/B 3.9 17:35:33 10° NW 17:37:42 13° NNW 17:39:53 10° NNE
Cosmos 1666 3.0 17:35:43 10° N 17:39:14 39° ENE 17:42:43 10° SE
USA 308 3.6 17:37:37 10° WNW 17:41:39 39° N 17:44:08 20° ENE
Cosmos 1092 Rocket 4.3 17:41:15 10° NNW 17:47:37 74° W 17:53:53 10° S
Meteor 2-16 Rocket 4.4 17:42:42 10° N 17:48:47 60° ENE 17:54:50 10° SSE
Meteor 1-26 Rocket 4.3 17:44:54 10° S 17:50:54 83° E 17:56:59 10° NNE
COSMOS 2455 2.8 17:45:21 10° SSW 17:51:23 82° ESE 17:56:40 14° NE
Meteor 1-11 Rocket 4.4 17:46:45 10° N 17:51:42 30° ENE 17:56:41 10° SE
PSLV R/B 3.5 17:50:25 10° SSE 17:54:06 80° ENE 17:57:52 10° NNW
Cosmos 1814 Rocket 4.0 17:51:38 10° S 17:56:46 60° ESE 18:00:57 15° NNE
Cosmos 1697 Rocket 4.2 17:51:36 10° NW 17:56:49 40° WSW 18:01:59 10° S
Cosmos 921 Rocket 3.9 17:53:46 10° SSE 17:57:18 27° E 17:57:55 26° E
Cosmos 2322 Rocket 2.9 17:52:23 10° NNW 17:57:28 32° NE 18:00:16 21° E
Cosmos 1570 Rocket 4.1 17:52:48 10° S 17:57:53 54° ESE 18:01:47 17° NE
SL-08 RB Rocket 4.4 17:56:29 10° SE 18:00:35 32° ENE 18:04:40 10° N
Cosmos 2298 Rocket 4.3 17:55:59 10° NNW 18:01:07 45° ENE 18:06:13 10° SE
COSMO-SKYMED 1 3.0 17:59:54 21° NE 18:02:18 39° E 18:06:22 10° SSE
Cosmos 1980 Rocket 2.6 17:56:39 10° NNW 18:02:18 68° WSW 18:07:51 10° SSE
CZ-4C R/B 3.0 17:55:35 10° NW 18:02:47 88° SW 18:11:14 10° SE
Cosmos 1812 2.6 18:02:43 10° S 18:06:33 81° E 18:09:55 13° NNE
Cosmos 1633 Rocket 2.9 18:02:23 10° N 18:06:47 74° E 18:11:10 10° SSE
USA 305 3.3 18:03:08 10° WNW 18:07:15 46° NNE 18:08:38 33° ENE
Cosmos 2142 Rocket 4.4 18:04:53 10° S 18:11:02 79° E 18:17:18 10° N
YAOGAN 1 4.1 18:14:04 20° NNE 18:14:04 20° NNE 18:15:51 10° N
CZ-2C R/B 3.9 18:12:23 10° S 18:12:42 10° SSE 18:13:00 10° SSE
Cosmos 1151 Rocket 2.9 18:09:15 10° S 18:13:35 84° E 18:17:49 11° N
CZ-4 R/B 4.5 18:09:38 10° SSE 18:13:38 52° ENE 18:17:41 10° N
Cosmos 2279 Rocket 3.9 18:08:05 10° S 18:14:17 79° E 18:20:30 10° N
Cosmos 1818 3.5 18:08:52 10° NW 18:14:24 79° NE 18:19:51 10° SE
Meteor 1-5 Rocket 4.3 18:10:39 10° NNW 18:16:40 88° W 18:22:34 10° S
SL-16 R/B 2.3 18:11:18 10° NNW 18:16:51 51° NE 18:21:04 17° SE
Cosmos 2266 Rocket 4.1 18:11:14 10° N 18:17:29 54° ENE 18:23:45 10° SSE
Cosmos 2082 Rocket 2.4 18:14:41 10° SW 18:20:22 73° WNW 18:24:53 17° NNE
USA 267 3.3 18:19:25 25° NE 18:23:31 75° NNW 18:30:01 10° WSW
Landsat 5 3.7 18:25:10 44° ESE 18:25:10 44° ESE 18:28:42 10° S
SKYMED 3 4.4 18:24:19 28° NNE 18:26:30 69° ESE 18:30:49 10° S
ARGOS 3.0 18:23:09 10° SSE 18:28:34 80° ENE 18:33:59 10° NNW
X-37B 3.2 18:29:30 10° S 18:29:43 11° S 18:29:43 11° S
Meteor 2-15 4.3 18:25:19 10° S 18:31:21 68° E 18:37:24 10° NNE
GEOS 3 Rocket 3.9 18:30:35 40° ENE 18:31:38 46° NE 18:36:34 10° NNW
Cosmos 1933 Rocket 4.3 18:27:49 10° N 18:30:33 34° NNE 18:30:33 34° NNE
Cosmos 2333 Rocket 3.6 18:27:34 10° N 18:31:05 22° NNE 18:31:05 22° NNE
Cosmos 2278 4.4 18:26:52 10° NW 18:32:27 55° WSW 18:37:58 10° S
Cosmos 44 Rocket 3.4 18:29:28 10° NW 18:34:24 76° SW 18:38:14 16° SSE
Cosmos 2208 Rocket 4.0 18:29:11 10° SSW 18:34:35 86° ESE 18:37:42 27° NNE
Okean O Rocket 1.5 18:30:13 10° SSE 18:34:40 90° NW 18:39:10 10° NNW
Cosmos 1328 Rocket 3.6 18:33:04 10° SSW 18:37:30 78° W 18:40:29 21° N
Cosmos 2150 Rocket 3.8 18:32:28 10° NNW 18:37:41 80° ENE 18:42:55 10° SSE
Cosmos 1470 Rocket 3.5 18:33:27 10° N 18:37:57 90° WSW 18:42:26 10° S
Cosmos 1833 Rocket 4.3 18:33:27 10° WSW 18:38:23 30° NW 18:43:04 11° NNE
ISS -1.3 18:36:47 10° W 18:39:24 21° SW 18:41:23 13° S
USA 306 2.9 18:35:24 10° WNW 18:39:36 59° NNE 18:39:36 59° NNE
H-2A R/B 2.9 18:36:30 10° S 18:41:29 49° W 18:46:22 10° NNW
MOS 1-B Rocket 4.4 18:42:02 10° N 18:47:56 68° WNW 18:54:38 10° SSW
Cosmos 2219 Rocket 3.8 18:43:54 10° N 18:46:30 20° NNE 18:46:30 20° NNE
CZ-2C R/B 2.6 18:44:29 15° N 18:48:47 78° WNW 18:53:56 10° SSW
USA 32 3.9 18:44:17 10° S 18:49:24 60° E 18:49:25 60° E
Cosmos 1125 Rocket 3.4 18:44:27 10° NNW 18:49:45 88° WSW 18:54:40 12° SSE
SKYMED 2 3.8 18:48:31 32° N 18:50:27 69° WNW 18:54:46 10° SSW
ATLAS CENTAUR R/B 3.0 18:46:45 10° W 18:53:42 41° NNW 18:54:28 37° N
NOSS 3-4 (A) 4.4 18:48:33 10° NW 18:54:38 36° NNE 18:55:00 35° NE
NOSS 3-4 (C) 4.4 18:48:39 10° NW 18:54:43 35° NNE 18:55:05 35° NE
Spot 2 4.3 18:54:14 31° SSE 18:56:43 77° ENE 19:01:50 10° NNW
Meteor 1-27 Rocket 3.6 18:51:33 10° S 18:56:41 61° ESE 18:56:41 61° ESE
Cosmos 1900 4.5 18:52:11 10° SW 18:57:02 69° NW 18:57:57 55° N
ATLAS 2AS CENTAUR R/B 3.9 18:50:53 10° NW 18:57:07 27° NNE 18:58:02 26° NNE
USA 234 4.2 18:51:50 10° SSE 18:58:03 46° SW 19:04:18 10° WNW
USA 307 3.4 18:55:02 10° WNW 18:58:27 52° NNW 18:58:27 52° NNW
CZ-4B R/B 4.1 18:56:32 10° S 19:01:43 46° W 19:06:51 10° NNW
Cosmos 1655 Rocket 4.2 18:57:49 10° NNW 19:04:12 71° W 19:10:30 10° S
Lacrosse 5 rocket 2.6 19:11:28 10° WNW 19:14:51 38° WSW 19:14:51 38° WSW
Cosmos 2237 4.1 19:11:24 10° NNW 19:17:01 85° N 19:17:01 85° N
Cosmos 2360 Rocket 2.6 19:14:56 10° NNW 19:19:09 50° N 19:19:09 50° N
USA 308 4.3 19:17:37 10° WNW 19:20:10 35° WNW 19:20:10 35° WNW
Cosmos 1515 Rocket 4.4 19:17:59 10° SSW 19:22:00 48° W 19:22:00 48° W
COSMOS 2455 4.4 19:32:56 10° W 19:38:00 27° NW 19:39:49 24° N
Cosmos 2322 Rocket 2.8 19:36:15 10° NW 19:41:48 54° WSW 19:42:10 53° SW
SL-16 R/B 3.9 19:55:51 10° NW 20:00:42 29° WSW 20:03:05 22° SW
Cosmos 2082 Rocket 4.4 20:01:43 10° W 20:05:30 18° NW 20:06:45 17° NNW
USA 267 4.0 20:06:46 43° NNW 20:06:46 43° NNW 20:12:12 10° WNW
Cosmos 2333 Rocket 4.2 20:11:19 10° NNW 20:13:07 21° NNW 20:13:07 21° NNW
ATLAS 2AS CENTAUR R/B 4.4 20:42:28 10° NW 20:45:28 25° NNW 20:45:28 25° NNW
